Location: Maccacari
(45.1333°N, 11.1333°E)
Time: 15:15:27
(UTC+00:00)

S-56A Canister/Altair - Pass Details

Date: 24 January 2021
Orbit: 631 x 2501 km, 38.9° (Epoch: 01 March)

Event Time Altitude Azimuth Distance (km) Brightness Sun altitude
Rises 01:01:09 0° 218° (SW) 3,139 - -57.6°
Reaches altitude 10° 01:04:17 10° 199° (SSW) 2,080 - -57.2°
Maximum altitude 01:07:25 18° 155° (SSE) 1,549 - -56.8°
Drops below altitude 10° 01:10:27 10° 112° (ESE) 2,013 - -56.4°
Sets 01:13:25 0° 93° (E) 2,996 - -56.0°
